CAPE
1213 1166 1345 1636 1876 1950 2327 2246 2627 2528 2477 2472 2592 2674 2929 2905 2786 2774 2855 3017 3043 2914 2800 2684 2791 2680 2634 2713 2729 2654 2616 2590 2701 2630 2590 2518 2361 2520 2549 2516 2459 2518 2496 2779 2706 2519 2610 2544 2401 2440 2350 2274 2285 2193 2127 2250 2211 2185 2110 2102 2078 2304 2275 2318 1892 2217 2311 2318 2533 2390 2127 2295 2399 2384 2232 2055 1847 1818 1865 1598 1806 2092 2085 2234 2270
1048 1168 1477 1615 1579 2214 2086 2277 2645 2598 2340 2253 2688 2702 3010 2894 2814 2857 2982 2908 2870 2713 2622 2731 2688 2698 2642 2656 2639 2576 2628 2613 2619 2491 2437 2516 2559 2447 2564 2495 2491 2467 2619 2593 2451 2364 2406 2321 2209 2290 2238 2191 2168 2351 2277 2191 2238 2239 2121 2096 2142 2344 2192 2048 2118 2387 2239 2304 2128 2311 2234 2219 2228 2128 2003 1854 1749 1531 1716 1741 1659 1722 2203 2185 2172
1143 962 1313 1437 1492 2240 2586 2796 2574 2457 2385 2583 2690 2928 2951 3073 2966 2964 2920 2865 2752 2629 2731 2761 2692 2623 2582 2606 2630 2541 2536 2462 2410 2522 2628 2700 2562 2639 2716 2608 2544 2518 2521 2379 2324 2268 2241 2183 2077 1990 2122 2055 2252 2484 2409 2246 2246 2250 2123 2044 2118 2156 2464 2599 2163 1872 1851 2104 1954 2058 2164 2136 2001 1974 1800 1666 2239 2200 2196 1757 1617 2140 1852 2184 2204
1007 1063 1312 1439 1817 2226 2373 2630 2535 2523 2701 2646 2744 2921 3068 3144 2921 2903 2866 2832 2852 2797 2862 2686 2592 2568 2607 2586 2568 2567 2681 2717 2797 2697 2571 2533 2551 2540 2519 2412 2256 2137 2190 2212 2211 2175 2231 2184 2038 2006 2003 2005 2060 2249 2429 2428 2368 2317 2197 2020 2090 1614 2088 2122 1872 2055 2374 2126 2094 2057 2038 1851 1806 1754 1746 1745 1789 1822 1813 1597 1919 2168 2309 2372 2353
1203 1299 1767 1822 2175 2422 2520 2602 2619 2753 2598 2396 2842 2966 3160 2945 2866 2764 2749 2811 2823 2856 2677 2665 2699 2656 2618 2529 2545 2636 2570 2541 2537 2458 2380 2290 2231 2411 2500 2431 2350 2172 2216 2212 2119 2172 2085 2060 2239 2166 2158 2125 2132 2353 2436 2361 2358 2251 2173 2088 1954 1791 1706 2031 2284 2329 2338 2247 2032 1720 1514 1678 1621 1633 1663 1607 1812 1829 1917 1775 1857 1936 2130 2336 2229
1271 1620 1690 1714 1908 2320 2827 2707 2705 2719 2550 2648 2740 3092 3000 2912 2769 2708 2799 2812 2753 2674 2630 2690 2697 2654 2528 2432 2393 2356 2330 2366 2204 2158 2287 2210 2166 2047 2196 2401 2289 2339 2298 2460 2365 2411 2434 2349 2169 2121 2188 2215 2268 2360 2370 2380 2339 2392 2236 1963 2080 1498 1603 2336 2337 2110 2314 2364 2186 2213 1761 1965 1355 1358 1801 1927 2122 2050 1895 1871 2011 2536 2380 2156 2024
1186 1461 1575 1412 1876 2209 2638 2569 2282 2666 2689 2627 2931 3103 2910 2837 2762 2821 2790 2782 2679 2529 2484 2459 2482 2459 2308 2256 2283 2275 2259 2185 2128 2183 2116 2138 2140 2005 1964 2178 2299 2278 2317 2220 2148 2360 2428 2530 2501 2330 2397 2285 2209 2253 2325 2424 2419 2422 2288 2236 2082 1631 1967 2183 2154 2401 2004 1933 2348 1852 1554 1751 1980 1828 1776 2043 1863 1901 1840 1757 1701 1972 2168 2224 2046
772 1180 1142 1308 2006 2118 2520 2557 2599 2835 2772 2812 3086 2988 2836 2739 2856 2874 2820 2648 2525 2488 2420 2401 2402 2334 2248 2252 2266 2217 2175 2251 2161 2098 2139 2188 2241 2113 2040 2122 1905 2232 2184 2307 2407 2094 2352 2335 2492 2475 2558 2429 2386 2382 2360 2319 2394 2573 2529 2471 2175 2063 2085 2342 2462 2313 1938 2114 2476 1667 1718 1983 2060 1853 2245 2219 1789 1900 1631 1707 1633 1792 2016 1944 1966
983 901 1245 1487 1920 1977 2314 2578 2629 2863 2927 2979 2988 2958 2813 2805 2799 2752 2775 2598 2429 2316 2303 2238 2245 2238 2234 2150 2127 2127 2150 2130 2144 2184 2123 2069 2195 2252 2195 2206 2368 2432 2344 2387 2339 2536 2431 2518 2700 2618 2568 2518 2460 2412 2373 2388 2561 2619 2672 2565 2115 1819 2172 2246 2194 1982 1957 2249 2384 2205 2216 1887 1862 1975 2069 1991 2186 2086 1921 1679 1575 1513 1659 1722 1586
743 818 1189 1747 1759 1867 2337 2685 2732 2767 2978 3009 3100 2890 2849 2797 2820 2757 2652 2423 2271 2306 2356 2388 2369 2382 2304 2248 2158 2191 2162 2080 2228 2296 2288 2412 2345 2685 2685 2643 2680 2724 2543 2547 2485 2357 2453 2510 2475 2566 2457 2519 2533 2449 2432 2509 2620 2656 2694 2527 2111 1938 1948 2328 2160 2040 2037 1893 1983 1930 2144 1812 2046 1943 2138 1926 2130 2057 2269 2441 1977 1639 1644 1744 1930
890 1151 1471 1607 1632 1982 2352 2753 2729 2848 3005 3027 3154 3088 2937 2835 2804 2762 2654 2587 2659 2571 2431 2311 2225 2221 2133 2133 2211 2169 2174 2198 2222 2327 2452 2489 2554 2584 2576 2557 2541 2581 2568 2509 2399 2345 2297 2459 2476 2408 2435 2460 2414 2564 2644 2664 2625 2641 2769 2790 2512 2345 2521 2209 1821 1733 1751 2019 2280 2224 1735 2094 2106 2125 2222 2331 2211 2225 2222 2149 2094 2025 2083 2056 1902
1099 1202 1469 1630 1991 2185 2543 2620 2794 2920 3018 3033 3083 3006 3001 2847 2812 2764 2726 2647 2498 2424 2442 2362 2277 2340 2393 2321 2298 2357 2454 2512 2449 2559 2591 2505 2604 2634 2595 2592 2653 2622 2541 2685 2654 2694 2630 2479 2468 2469 2388 2463 2443 2616 2805 2794 2870 2850 2760 2680 2761 2474 2581 2053 1464 1354 1976 1723 1892 1769 1794 1967 2261 2300 2310 2308 2359 2309 2316 2154 1941 2120 2125 2108 2285
1332 1384 1774 1949 2058 2356 2486 2568 2761 3061 2996 3154 3048 3002 3100 2923 2732 2686 2577 2481 2501 2599 2424 2244 2246 2261 2264 2338 2461 2504 2506 2572 2632 2714 2739 2811 2702 2646 2627 2650 2648 2622 2718 2715 2522 2458 2472 2537 2513 2543 2589 2625 2720 2800 2870 2869 2922 2909 2833 2567 2741 2634 2372 2538 1500 1444 2291 2266 2059 2171 2077 2124 2256 2371 2296 2148 2144 2253 1989 1841 1754 2114 2002 2089 2306
698 1204 1975 2156 2014 2538 2378 2628 2801 3045 3048 3035 3127 3089 3051 2871 2636 2539 2519 2575 2653 2583 2380 2305 2318 2284 2387 2455 2567 2635 2592 2567 2749 2754 2780 2763 2725 2671 2675 2742 2676 2638 2572 2531 2529 2529 2672 2694 2706 2690 2744 2777 2763 2794 2817 2929 2975 3027 2852 2792 2919 3104 2896 1794 1805 2114 2294 2203 2597 2383 2223 2388 2327 2550 2346 2174 2080 2168 2154 2068 2097 2064 1961 2039 2094
1116 1317 1552 1750 2250 1993 2406 2676 2803 2994 2968 3029 3192 3182 3030 2861 2762 2656 2528 2772 2878 2733 2668 2512 2422 2440 2481 2522 2644 2776 2783 2812 2822 2778 2771 2806 2775 2776 2800 2735 2652 2713 2704 2774 2752 2704 2671 2704 2768 2767 2672 2760 2773 2830 2911 2949 3032 3002 2947 2724 2844 2999 2591 2299 2555 2106 2288 2355 2308 2034 2069 2219 2458 2441 2311 2122 1940 1882 1847 1876 2071 2133 2067 2057 2055
1211 1177 1313 2007 2127 2228 2404 2761 2782 3058 2935 3136 3237 3135 2932 2860 2698 2491 2571 2833 2998 2893 2717 2654 2633 2595 2627 2634 2710 2832 2872 2878 2748 2803 2783 2775 2769 2825 2796 2792 2781 2837 2929 2974 2898 2860 2669 2641 2762 2767 2802 2864 2878 2918 2968 3040 3010 2871 3019 2858 2910 2687 2794 2227 1665 2396 2680 2199 2308 2472 1923 2268 2515 2386 2280 2026 1897 1822 1920 1935 1894 2224 2295 2190 2047
786 1241 1499 1656 2062 2088 2230 2538 2694 2952 3147 3212 3227 3162 2983 2950 2914 2704 2780 2904 3048 2821 2749 2633 2571 2599 2734 2574 2668 2938 3005 2929 2801 2830 2824 2751 2793 2761 2818 2784 2938 3035 3063 3080 2976 2861 2934 2938 2925 3013 3014 3078 2935 2950 2980 3055 2926 2962 2905 3020 2845 2564 3107 2143 1717 2080 2375 2313 2260 2103 2012 2348 2537 2284 2229 2108 1867 1748 1862 1975 1960 1865 1878 2123 2143
1091 1133 1194 1817 1965 1673 1932 2066 2838 2836 2996 3119 3129 3045 3040 2995 2983 2924 3028 3108 2889 2916 2787 2671 2454 2384 2187 2306 2571 2862 3026 2965 3029 2978 2870 2800 2735 2824 2885 2889 2925 3012 3081 3033 2922 3016 3043 3147 3248 3134 3070 3090 3175 3056 3125 3025 3019 2999 3017 2732 3012 2982 2763 2504 2125 2046 2060 2273 2130 2266 1955 2302 2467 2274 2189 2012 1998 1939 1927 1960 1924 1988 2070 2210 2338
814 1387 1427 1506 1366 1321 1435 2239 2352 2347 2794 2743 3087 2934 2937 2960 2838 3069 3135 3034 2775 2745 2726 2514 2515 2456 2256 2094 2269 2591 2810 3028 2965 2710 2674 2618 2558 2874 2854 2869 2845 2794 2899 2876 2821 2879 3021 3297 3273 3280 3246 3379 3358 3240 3126 2941 2993 3004 3014 3166 2660 3159 3186 2449 1982 2200 2344 2048 2180 2210 2169 2455 2141 2183 1993 1797 1936 1796 1719 1818 1940 1940 1984 2194 2181
1100 912 1376 1277 1139 1116 1653 1516 1650 2151 2257 2377 2861 2933 2934 2970 3061 3205 3296 3192 2871 2628 2551 2400 2364 2411 2226 2104 2021 1966 2623 2534 2703 2574 2701 2922 2844 2669 2814 2724 2696 2705 2660 2629 2674 2709 2922 2942 3156 3185 3164 3230 3142 2984 2987 3154 3074 3069 2958 2882 3179 3106 3047 2305 2231 2215 2007 1784 2131 2053 2400 2454 2053 2150 1941 1698 1803 1863 1702 1705 1722 1796 1894 1936 2151
864 1034 1423 1247 835 1440 1482 1365 1482 1693 1561 2050 2578 2969 3019 3094 3132 3242 3364 3201 2897 2693 2576 2439 2350 2249 2267 2213 1983 1735 2442 2774 2944 2493 2780 2590 2712 2720 2721 2734 2595 2666 2706 2573 2514 2600 2663 2922 2965 3138 3194 2755 3142 2989 3021 2910 3188 2613 3177 2868 3062 2280 1651 2090 1783 1953 1924 1949 2053 2179 2486 2344 2056 2020 1985 1819 1770 1916 1742 1846 1910 1845 1847 1805 2024
989 760 1068 1096 1017 1281 1156 1272 1231 1384 1493 1863 2424 2676 3152 2740 2914 3187 3074 3121 2856 2751 2696 2292 2117 2251 1720 2284 2643 2714 3045 3446 2822 2776 2939 2653 2682 2788 2797 2709 2621 2604 2634 2727 2688 2868 2766 3051 3290 3275 3385 3047 3100 3461 3345 3283 3274 3328 2675 3256 3052 2131 1457 2300 1755 1714 2011 1912 2170 2598 2656 2270 2076 2137 2156 1920 1873 1913 1816 1914 1943 1880 1795 1633 1688
664 570 739 781 1323 1215 1064 1059 882 1198 1294 1671 1908 2539 2378 2424 2546 2672 2723 2916 2962 2591 2321 2227 2157 2178 2408 1617 3034 2674 2549 3236 3094 3008 3153 2743 2547 2794 2890 2864 2757 2582 2545 2518 2852 2755 3045 2877 3417 3366 3052 2917 3070 3106 2806 3408 2931 3118 3393 2965 3028 1900 972 2277 2309 1717 1758 1812 2015 2806 2624 2386 2248 2292 2247 1990 1869 1785 1738 1880 1988 1777 1727 1675 1608
615 678 586 600 1058 1106 1036 838 883 1109 1214 1226 1663 2156 1921 2241 2033 2083 2282 2661 2811 2680 2556 2519 2223 2142 1884 2022 2389 2259 2546 3114 3280 3016 2956 2503 2822 2792 2920 2910 2742 2768 2582 2774 2517 2742 2859 3037 3195 3048 2531 2658 2610 2387 2788 2944 2746 2949 3306 2870 2608 1938 1605 1865 2086 1917 1800 1977 2120 2826 2646 2491 2322 2230 2249 2066 1920 1790 1666 1646 1699 1651 1546 1550 1495
880 702 561 938 827 760 648 1041 1094 1230 1247 1238 1423 1706 1713 1832 1783 1784 1725 2048 2421 2323 2456 2674 2534 2835 2046 2303 1669 1970 2416 3071 3017 2635 2678 3351 2728 2782 2687 2834 2744 2454 2967 2833 2928 2623 3036 3107 2867 2960 2775 2346 2305 2544 2634 2205 2590 2765 2584 1811 695 1044 832 1918 2144 1863 1931 2022 2391 2706 2530 2460 2372 2250 1992 2080 1954 1846 1754 1661 1660 1628 1569 1500 1535
875 714 572 1189 740 731 569 853 899 1355 1407 1252 1186 1728 1517 1450 1457 1382 1598 1270 1656 1648 2329 2952 2442 2635 2536 1382 1296 1767 2278 2763 1788 2818 3134 3205 3032 3540 3210 3017 3010 3111 2731 3730 2681 2976 2484 2433 2393 2281 2178 2284 2412 2242 2187 2547 1139 1007 789 693 1145 1003 672 1757 2018 1881 1841 2059 2639 2850 2587 2596 2463 2354 2287 2176 2008 1914 1857 1778 1783 1734 1666 1549 1542
1066 1115 1354 1218 1016 647 729 917 746 1459 1534 1440 1317 1606 973 1032 1349 1202 1293 1143 1222 1261 1811 2308 2554 2943 2720 2282 1250 659 1743 1804 2566 3169 3026 3175 3160 2784 3007 2963 3069 3382 3151 3220 2321 2519 2665 3090 2012 2519 2694 2133 1832 2346 2156 2216 2352 848 640 432 387 770 574 1557 2040 2162 2051 2080 2502 2636 2546 2427 2569 2382 2422 2361 2266 2266 2117 1994 1984 1958 1810 1693 1571
1560 1146 1347 1311 1544 973 1085 996 1277 1426 1733 1706 1576 1668 1122 820 725 1480 1408 1359 1220 1186 1420 2148 2448 2584 3040 2741 2286 1306 1481 1960 2638 3080 2705 2228 2351 2706 2617 2503 2425 2614 2878 2357 2325 2751 2798 2852 1923 2553 2106 1922 1389 1576 1282 1883 1954 1217 432 395 471 782 553 1168 1840 2026 2065 2010 2370 2669 2539 2460 2400 2434 2505 2446 2506 2433 2358 2251 2169 2097 1940 1837 1734
1118 1335 1430 1584 1597 1564 1613 1242 1284 2006 1730 1487 1296 2023 1514 1028 985 1163 1380 1885 1144 1379 1448 1843 2732 2489 2415 2569 2592 1206 816 1779 2250 2772 2955 2664 2882 2446 2707 2610 2637 2808 2855 2941 2331 2185 2451 1532 1347 1927 2498 2791 1913 1779 1734 1325 2023 1168 727 509 991 458 203 390 1466 1783 1964 2246 2293 2505 2531 2488 2399 2447 2505 2514 2420 2299 2357 2423 2333 2246 1998 1954 1903
1509 1371 1120 1736 1748 1264 1468 1502 1576 2123 1838 1513 1590 1855 1950 1522 1684 1802 1805 1896 1544 1537 1904 2071 1937 2266 2016 2428 1373 1814 2090 1573 2307 2669 2330 3174 2474 2376 2404 2217 2654 3239 2400 2513 2457 2139 2099 1386 1433 2086 2519 2244 2042 2435 2026 1841 1804 667 658 435 162 174 526 0 762 1576 2008 2131 2265 2658 2733 2570 2408 2439 2499 2536 2429 2327 2367 2347 2421 2296 2098 2052 1978
1280 1628 1807 1648 1792 1600 1468 1648 1729 2314 1878 1385 1790 1926 1913 1772 1890 1796 1738 1744 1544 2334 2194 1799 1570 1677 2358 2562 1742 2183 2292 1675 2681 1986 2217 2444 2645 2581 2652 3152 3230 2924 2942 2383 2554 1891 1775 1714 2135 2157 3142 3338 3219 2520 2411 2132 1531 622 609 212 209 378 118 22 1052 1399 1552 1762 2172 2655 3113 2879 2555 2426 2488 2513 2166 2214 2325 2343 2345 2362 2278 2149 2039
948 1147 1672 1636 2025 1337 1702 1607 1604 2230 1981 1398 2082 1963 2030 1887 2079 2037 1717 1734 2075 1885 1994 1673 2472 2361 2636 2883 2899 2068 3015 3276 2847 2601 2507 3005 2984 2716 2540 2604 2800 2955 2938 2690 1920 2515 2247 2604 2736 2793 2182 2487 2765 2388 2736 1982 1282 676 606 530 86 234 7 39 214 812 1237 1528 1820 2330 2927 3062 2795 2409 2525 2447 2334 2176 2212 2087 2048 2199 2292 2009 2150
1017 1241 1342 1743 1422 1228 1245 1725 2173 2394 2115 1358 1610 1813 1900 1588 1750 1899 1839 1981 1656 1631 1882 1729 2365 2708 3288 2817 3258 2906 2866 3366 3615 3066 3089 3354 2637 3281 3077 2441 2757 3174 2868 2731 2903 3018 3256 2688 2676 2466 3393 2588 2633 2112 1946 1706 1058 570 571 238 150 0 235 0 194 390 999 1399 1830 2020 2436 2846 2834 2597 2563 2396 2386 2115 2185 2169 2250 2128 2182 2148 2141
1228 1192 1212 1388 1187 1236 1247 1465 2097 1988 2247 1475 1673 1787 1929 1572 1650 1690 1970 2055 1457 1541 2098 2242 2559 2830 3044 3301 3215 3220 2683 2748 3399 2853 3084 2733 2872 3363 3054 2822 3439 3581 3264 3726 4286 2908 3498 2756 2520 3020 2799 2605 2271 1878 1490 935 1205 1192 666 188 235 144 5 9 75 237 417 758 1067 1545 1738 1981 2495 2519 2560 2504 2471 2201 2152 2171 2178 2118 2172 2177 2021
1186 1272 1314 1688 1356 1150 1172 1314 1993 1866 2172 1885 1949 1992 2026 1321 1633 1801 1598 1966 1609 1621 1425 2012 2281 2179 2244 3162 3346 3186 3039 3064 3163 3085 2862 3159 2684 2599 2758 2737 3443 3382 4169 3838 3144 3222 2831 2742 3005 2553 2567 2510 1963 1894 1221 1222 599 501 521 1066 244 202 15 0 231 249 438 574 871 875 1366 1680 2090 2364 2348 2451 2540 2509 2293 2174 2156 2114 2037 1984 1932
1220 1537 1586 1652 1547 1597 1784 1240 1564 1903 2218 2189 2051 2109 2081 2144 1864 1957 1601 2135 1817 1612 1632 1163 1517 1913 1864 2846 3185 3072 3228 3067 3038 3495 3753 3125 2947 3873 3664 3434 3694 3005 3446 3841 3721 3282 2946 2719 2606 2358 3044 2162 2588 1695 1673 1148 761 255 788 198 380 37 388 115 283 141 263 555 888 1041 1078 1489 2035 2187 2332 2197 2287 2360 2377 2273 2150 2204 2070 2031 2014
1094 1562 1828 2114 1974 1627 1841 1198 1365 1686 2153 1712 2256 2502 2498 2512 2265 1668 950 2116 1544 1542 1777 1253 1203 1581 1674 1959 2891 3314 2994 3155 3172 3257 3430 3228 3519 3464 3588 2925 3495 3919 4285 3722 3558 3330 2829 2252 3972 2776 2252 3530 2523 826 730 993 605 517 221 348 0 74 150 288 235 232 544 742 637 1072 864 1549 2216 2234 2266 1970 2169 2435 2480 2270 2256 2282 2228 2173 2156
1198 1500 1793 1868 1679 1571 1448 1321 1365 1614 2340 2359 2499 2500 2393 2582 2271 1805 1826 1848 1324 1142 1201 1366 1230 1227 1602 2174 2816 3101 3236 3134 3224 3413 3265 2773 2908 3018 2600 3045 3175 3385 4002 4278 3900 3135 3047 2882 3975 3745 2660 3044 2768 1204 598 529 19 228 7 4 48 380 5 553 647 1068 779 602 1016 1100 1415 1550 1588 1672 1335 1545 1681 1845 1893 2427 2388 2318 2225 2223 2143
777 1199 1476 1820 1764 1818 1802 2122 1771 1868 1922 2432 2812 2612 2519 2570 2031 2109 1749 2221 2146 1676 1288 1322 1268 1173 729 2394 3018 2993 3118 3154 3144 3454 3351 2915 2669 2684 2738 3085 2429 4019 4498 3416 3383 3170 3470 3024 2709 3401 3254 2610 2410 1312 741 792 689 106 59 12 212 256 639 283 929 771 616 268 629 996 972 1191 1245 1527 1613 1510 1663 1923 1942 2162 2250 2179 2196 2290 2311
1006 1326 1687 1853 1921 2045 1832 2330 2068 1892 2266 2551 2504 2124 1975 2050 1832 1866 1826 1980 2034 1958 1470 1221 968 1146 849 2724 3071 3224 3219 3224 3170 3166 3455 3191 2784 2610 2702 2491 3051 4154 4064 2618 3283 3751 3312 3382 2559 2568 2315 2501 2383 1823 1345 1200 27 54 245 31 1 100 357 685 348 308 464 394 378 738 173 551 541 722 1414 1207 1454 1646 2017 2155 2242 2379 2290 2306 2266
1342 1427 1769 1742 1762 1847 1737 2091 2024 2059 2248 2240 2048 1778 1566 1905 1981 1446 1482 1554 2173 1961 1628 1204 1058 699 1254 1724 3234 3024 3490 3208 3274 3189 3168 3416 3791 3719 3846 3191 3196 3450 3722 2873 3101 2858 3173 2989 4006 4141 2813 2336 2232 1492 27 65 216 438 1326 343 461 60 486 6 77 139 324 400 296 480 429 3 0 16 309 651 1248 1600 2054 1817 1973 1987 2465 2196 2178
1429 1330 1443 1517 1553 1413 1642 1799 1856 1746 1938 1772 1821 1686 1806 1767 1884 1735 1278 1482 2150 2128 1746 1628 1167 744 2605 2809 2892 2640 3203 3336 3418 3304 3397 3320 3918 3502 3655 3627 3735 4064 4066 3713 2933 3155 3250 3178 3329 3694 2950 2269 2064 1047 176 336 394 103 468 214 88 377 941 0 0 21 230 298 145 420 78 1 4 26 90 548 579 1442 1785 1823 1820 2003 2262 2192 2122
1100 902 1460 1488 1616 1648 1791 1844 1625 1731 1616 1558 1849 1741 1790 1922 1790 1753 1715 1360 1827 1856 1362 1436 1544 837 1701 2641 2825 3018 3304 3235 3260 3289 3265 3241 3671 3512 3520 4134 3838 3575 3566 3646 3487 3252 3533 3202 2958 2816 2713 1945 1640 1265 625 119 424 702 864 359 50 43 133 999 218 10 2 114 63 8 5 0 20 73 287 386 316 260 513 1016 1474 1925 1812 1889 1907
1438 1152 1202 1569 1612 1770 2058 1903 1732 1863 1761 1706 1990 1811 1881 2218 2367 2283 1898 1688 1786 2026 2069 1995 1739 1124 899 1795 3290 3182 3161 2890 2782 2903 2931 3264 4257 4107 4205 3809 4746 3835 3971 3857 3640 3318 3567 3713 3188 2510 2318 1681 1171 1302 242 452 1133 252 306 646 579 325 201 186 785 14 13 63 13 14 16 24 33 130 144 179 56 432 677 903 1142 1563 1745 1718 1640
1137 1233 1214 1189 1130 1663 2311 2070 1958 2095 1876 2022 2056 2040 2254 2464 2620 2725 2447 2338 2245 1977 1883 1750 1715 1715 1104 1552 2446 3068 3113 2708 2800 2987 2879 3424 4457 4083 4221 3830 4237 3680 4206 4391 4104 3626 3454 3338 3172 2508 2316 1908 1703 988 360 29 97 1222 2124 734 598 323 550 15 6 552 3 28 36 25 197 70 0 824 14 34 10 82 105 554 906 594 615 1399 1351
1620 1619 1310 1330 1424 1733 2383 2351 2131 2255 2096 2255 2153 2266 2322 2351 2431 2534 2306 2074 2201 1906 1749 1722 1497 1554 766 770 1931 2310 2528 2570 2988 2977 2733 3256 4131 4315 4238 3668 4229 4435 3821 3847 3794 3602 2645 2580 3013 2483 2016 2152 2671 1110 375 944 14 349 788 823 699 1112 1080 178 225 20 1584 105 154 95 36 36 1 371 922 408 391 147 80 367 578 642 657 776 929
1502 1533 1505 1675 1936 2000 2304 2528 2311 2357 2324 2444 2333 2510 2460 2530 2432 2237 2250 2062 2063 1856 2026 1563 1595 1711 1366 1329 2314 2382 3022 2833 2556 2899 2810 3228 4420 4494 4314 4259 4037 4075 4187 4056 3765 3224 2803 3135 2667 2310 2294 2607 2309 2044 1960 5 780 162 56 164 617 1029 661 454 1184 482 358 819 780 7 0 16 15 0 29 6 116 88 177 128 105 112 214 324 383
1679 1688 1697 1726 2126 2276 2360 2536 2494 2459 2374 2661 2434 2598 2598 2594 2617 2307 2322 2260 1707 2035 2297 2329 2244 2363 2174 1742 1985 2440 3183 3026 2641 2755 2943 3175 4334 4138 4193 4096 3898 3782 4256 4138 3535 2962 3081 3142 2695 2622 2652 2563 2334 2120 1955 683 620 255 40 267 323 221 249 163 313 525 326 455 278 173 8 11 32 0 0 12 0 29 167 445 260 225 414 330 145
1818 1796 1817 2054 2236 2342 2453 2527 2677 2580 2524 2817 2613 2625 2777 2711 2722 2597 2659 2550 2210 2310 2329 2446 2387 2557 2685 2335 2479 2470 3165 3250 3103 2732 3057 2996 3808 4597 4623 4136 3677 3601 4060 3823 3583 3120 3373 3296 2773 2886 2741 2838 2592 2662 2144 1641 39 292 343 124 674 555 170 242 407 391 721 264 296 202 457 57 20 76 100 4 9 76 180 202 184 207 286 170 458
1903 2193 1707 1846 2174 2512 2594 2689 2814 2728 2626 2829 2838 2682 2833 2861 2839 2670 2843 2850 2637 2444 2292 2576 2968 3112 3020 2954 2501 3054 3065 3287 3211 3043 3071 3100 3501 4092 4124 4489 3788 2898 3515 3390 3248 3301 3369 3461 2986 2768 2616 2482 2842 2667 2343 1731 1458 1033 378 732 447 1308 632 339 362 130 171 489 732 59 55 374 86 382 137 36 39 3 0 180 257 130 156 354 16
1826 1846 1784 1829 1794 2438 2674 2716 2890 2859 2801 2874 2929 2845 2752 2904 2884 2964 2912 2960 2865 2859 2904 3183 3118 3236 3195 3112 2911 3501 3095 3071 2915 3150 3151 2982 3299 3602 3320 3961 3792 3269 3677 3371 3208 2944 3347 3489 2742 2981 2975 2897 2894 2518 2328 1700 1596 1353 692 1500 672 1165 1081 787 617 156 295 339 286 121 9 14 14 195 76 16 2 33 284 67 13 0 171 136 265
Wind_Speed
9 6 7 7 7 5 4 4 3 3 4 5 6 7 8 9 9 9 8 9 9 9 9 9 9 9 10 10 10 9 8 8 8 8 8 8 8 8 8 7 6 6 5 5 6 6 7 8 8 9 9 9 9 9 9 9 9 9 11 12 12 13 12 12 13 13 12 11 10 9 9 10 11 12 12 12 12 11 11 16 16 14 14 16 20
7 6 6 5 5 4 4 4 3 3 4 5 7 8 8 8 8 8 8 9 9 9 9 9 9 10 10 10 9 8 8 7 8 8 8 8 8 7 7 7 6 5 5 5 6 7 8 9 9 8 8 8 10 9 9 9 10 10 12 12 12 13 13 12 12 12 12 10 9 9 9 10 10 10 10 11 13 15 15 13 13 12 14 18 19
4 6 5 4 8 6 5 4 4 4 5 7 8 8 8 9 8 8 9 9 9 9 9 9 9 10 9 9 8 8 8 8 9 9 8 8 7 7 7 7 5 5 5 5 6 8 9 9 9 8 8 9 10 8 8 9 9 11 12 12 12 12 13 13 12 11 11 9 8 9 10 10 10 9 9 11 13 13 13 14 16 16 13 16 14
7 6 4 7 7 4 6 4 5 5 6 8 8 8 9 9 9 9 10 10 9 9 9 9 9 9 8 8 8 8 8 8 8 8 7 6 7 7 6 6 6 5 5 6 6 7 8 9 8 8 8 9 9 8 8 8 9 10 11 10 10 11 13 13 11 9 6 4 4 2 0 3 5 9 9 10 12 12 11 13 14 15 14 14 13
6 5 4 6 5 5 5 5 6 6 8 9 9 9 9 9 10 10 10 10 10 10 9 9 9 8 8 8 8 8 8 8 7 6 6 6 7 7 7 7 7 7 7 7 7 7 8 8 8 8 9 9 9 9 8 8 9 9 10 9 9 9 11 11 10 7 5 3 4 2 4 3 2 8 9 10 10 10 11 12 13 14 13 13 12
5 4 4 5 6 4 5 7 8 9 10 10 10 9 9 10 10 10 10 10 10 9 9 9 8 8 8 8 8 8 8 7 6 6 6 6 6 6 6 6 6 6 5 6 6 7 7 6 6 7 7 8 8 8 8 8 8 7 7 8 8 9 10 9 7 6 4 4 4 2 0 2 1 3 8 9 9 9 9 10 13 13 12 11 11
7 3 3 5 4 4 5 9 12 11 10 11 10 9 9 9 10 10 10 10 9 9 8 8 8 8 8 9 8 8 7 6 6 5 5 4 4 5 5 5 5 5 5 5 6 6 6 6 6 6 6 7 7 7 7 7 7 7 7 7 7 8 9 7 6 5 4 3 3 2 4 2 2 2 6 7 7 8 8 9 10 11 9 8 10
6 3 4 4 3 5 6 9 11 11 11 11 10 9 9 9 10 10 10 9 8 8 8 8 8 8 9 9 8 7 6 6 5 5 4 4 4 3 3 3 3 3 3 4 5 5 6 6 6 6 5 5 6 6 6 6 8 8 7 6 6 7 7 6 7 6 5 0 1 3 3 5 1 2 4 6 7 8 7 7 8 9 9 9 10
8 6 4 4 4 7 5 9 11 11 11 10 9 9 9 9 10 10 9 9 8 8 8 8 8 9 9 9 8 7 7 6 6 5 4 3 3 2 1 1 1 1 3 4 5 5 5 5 6 5 6 6 6 6 6 7 8 8 7 6 5 6 7 7 6 5 3 3 4 4 5 2 3 2 3 6 7 7 6 5 6 8 8 9 10
9 7 5 3 5 7 6 8 10 11 11 10 9 9 9 9 9 9 9 8 8 7 7 8 8 8 8 8 8 7 7 6 5 4 3 3 2 1 0 1 1 2 2 3 3 4 5 5 5 5 6 6 6 5 5 6 7 8 7 6 5 5 4 6 5 5 1 2 3 5 4 6 5 4 4 5 5 5 6 6 5 6 8 10 10
10 7 5 6 9 7 7 9 11 11 11 10 9 8 8 8 9 9 8 8 7 6 7 7 7 7 7 7 7 6 6 5 4 3 3 2 1 1 1 1 1 1 2 2 3 3 4 4 4 5 6 7 6 5 4 4 5 6 6 5 5 3 3 3 6 2 1 3 3 3 5 7 5 5 5 6 5 6 7 6 6 7 9 9 10
9 8 7 6 9 9 8 11 11 11 11 10 9 8 8 8 8 9 8 6 6 5 6 6 6 6 6 6 6 5 4 4 3 3 2 2 1 1 1 1 2 2 2 2 3 3 3 3 3 4 5 6 6 5 4 3 3 3 3 3 4 6 3 6 4 2 3 3 5 2 2 4 4 5 7 6 6 5 5 6 6 7 8 8 9
9 9 7 7 7 9 11 12 11 11 11 9 9 8 7 8 8 8 7 5 4 5 5 4 4 5 5 5 5 4 4 3 3 3 2 1 1 1 2 2 3 3 3 3 3 2 2 2 3 4 6 7 7 6 5 4 4 4 3 2 3 3 4 5 5 6 3 3 3 1 4 4 5 6 8 8 7 7 8 7 5 10 10 11 11
9 9 8 8 7 11 13 11 11 11 10 9 9 8 8 8 8 7 5 4 3 4 3 2 3 3 4 4 4 5 5 4 4 3 3 2 2 2 3 5 5 5 5 5 5 5 5 4 3 4 5 6 8 7 6 5 5 4 4 4 2 0 3 6 6 3 3 2 2 2 3 3 4 6 9 8 8 8 9 9 11 12 12 12 13
10 12 10 9 9 8 13 12 11 11 10 10 9 8 8 7 6 5 4 2 3 2 1 2 3 3 3 4 4 5 5 5 4 4 3 2 3 4 6 7 7 7 8 8 8 8 7 6 6 6 7 7 8 9 8 6 6 6 6 5 4 2 4 2 4 2 1 2 1 4 3 3 5 7 9 10 9 9 11 12 13 13 13 13 14
12 13 11 9 9 7 7 11 12 11 10 9 9 9 8 7 5 5 3 2 1 1 1 2 2 3 3 4 4 4 4 5 5 4 4 4 5 5 6 7 9 9 9 10 9 9 9 8 8 8 8 9 10 10 10 9 8 8 8 7 6 6 8 5 1 4 3 1 2 2 4 4 6 7 9 10 10 11 11 12 13 14 14 14 15
12 12 12 11 10 8 7 7 9 12 10 9 9 9 7 6 5 4 3 2 1 1 2 2 3 3 3 4 4 5 5 6 6 6 6 7 8 8 8 8 9 10 10 10 10 10 10 10 10 10 9 10 11 11 11 11 11 11 11 10 6 5 8 9 4 3 1 2 2 4 4 5 6 7 8 10 10 11 12 12 13 14 14 14 15
13 11 11 11 10 9 8 8 8 6 5 7 9 8 6 5 5 4 3 2 2 3 3 4 4 4 4 5 6 7 7 8 7 8 8 9 9 10 9 9 10 10 10 10 10 10 10 10 10 10 11 11 11 11 10 11 12 13 12 10 10 7 8 9 8 4 3 4 4 4 4 7 9 9 9 10 9 11 11 12 13 14 14 15 15
11 10 11 10 10 9 10 7 7 6 5 3 2 4 6 5 5 4 3 3 3 4 5 5 5 6 7 9 10 10 10 9 9 9 9 9 9 9 11 10 10 10 10 10 10 10 11 11 11 11 12 11 11 11 11 11 11 12 11 11 12 10 11 10 9 7 4 2 2 4 5 9 9 9 9 10 10 10 11 12 13 14 14 15 16
8 9 9 8 9 10 8 7 6 6 5 4 3 2 4 5 5 4 4 4 5 6 6 7 7 8 11 13 13 14 13 12 10 10 8 9 10 9 10 10 10 11 11 11 10 11 11 13 14 13 12 12 11 12 12 12 12 12 11 11 11 10 13 12 11 9 8 5 4 2 6 8 10 10 9 10 10 9 10 11 12 13 14 15 16
6 8 6 6 9 10 9 6 7 7 6 4 2 2 4 6 4 4 4 5 7 8 8 9 9 11 14 16 17 17 17 14 16 12 10 10 8 10 11 10 11 11 11 12 11 12 14 15 16 15 13 12 13 13 15 15 15 13 13 11 10 4 13 13 12 12 9 8 5 5 9 9 11 11 10 9 10 9 8 10 10 11 12 13 15
5 5 6 6 7 7 8 7 5 7 4 1 1 3 4 5 5 5 6 7 9 9 11 13 12 14 15 17 18 19 18 15 14 11 12 10 10 10 12 12 12 12 13 13 14 14 16 17 18 17 15 14 14 13 15 17 18 17 14 13 10 10 14 12 12 11 11 10 9 10 13 12 11 11 11 10 10 9 8 9 9 10 10 11 12
6 5 4 8 5 5 6 7 7 5 5 2 2 3 5 6 6 7 8 10 11 11 14 14 14 12 15 14 16 14 14 13 13 14 11 10 10 12 11 13 13 15 15 15 16 17 18 18 19 17 15 15 14 14 14 14 14 19 16 13 12 13 14 12 12 11 10 10 10 15 15 15 14 13 12 10 10 9 8 9 8 9 9 9 9
6 7 6 5 6 4 4 4 5 5 3 2 2 3 6 7 8 9 10 11 11 13 14 14 14 12 13 15 12 13 13 13 12 11 11 11 11 12 13 13 15 16 16 15 17 16 18 18 17 17 15 13 11 13 14 13 16 14 15 13 14 14 15 12 11 10 10 9 11 18 17 16 15 14 12 10 9 9 8 8 9 8 9 10 10
4 6 6 5 5 5 4 3 4 3 3 2 3 4 6 8 8 10 11 11 10 12 13 13 14 13 13 15 9 13 12 12 11 12 11 11 11 11 12 12 13 14 15 13 12 14 15 15 14 14 13 12 12 14 13 12 16 18 18 17 15 13 13 13 11 8 7 8 11 17 17 16 15 14 12 10 9 9 9 8 9 9 10 10 11
6 4 5 6 6 4 4 3 5 3 3 3 4 5 6 10 9 10 10 11 9 10 11 11 13 12 15 14 9 12 8 9 10 9 8 9 9 9 9 9 10 10 10 10 11 12 13 13 12 12 13 13 13 14 16 17 12 10 11 13 12 14 14 12 11 10 8 9 11 15 15 15 15 14 13 11 9 8 8 8 8 9 9 11 11
5 6 4 5 4 5 2 4 4 2 3 3 5 5 9 11 9 10 10 10 9 8 9 9 10 12 12 13 10 9 7 8 9 8 7 8 9 9 7 9 10 8 7 7 9 9 9 10 10 12 14 15 16 16 14 12 11 9 11 9 10 11 10 13 12 10 9 10 11 16 14 14 14 14 13 13 11 9 8 9 8 8 8 10 11
7 6 6 4 4 5 2 3 1 2 4 3 5 7 10 10 8 10 9 9 9 7 7 8 8 11 10 10 10 11 5 8 8 7 6 6 8 8 7 8 10 9 9 9 11 9 8 10 11 11 11 16 12 11 11 10 12 11 10 10 10 10 12 11 11 11 10 10 11 15 15 14 13 12 12 13 12 12 11 10 9 9 9 9 10
8 6 6 4 5 3 2 3 3 2 3 4 5 7 10 11 9 8 9 9 9 7 6 6 6 10 7 9 12 9 8 5 6 5 4 6 6 8 9 9 9 9 9 11 13 9 8 11 10 16 19 14 12 11 11 12 11 10 10 9 12 9 12 9 12 11 11 10 10 12 16 15 13 13 12 12 12 12 12 10 10 10 10 9 10
8 8 8 6 4 3 2 4 4 2 2 4 8 7 10 12 9 8 9 9 9 7 4 7 6 9 7 8 10 5 10 2 4 4 5 7 8 9 8 9 10 10 12 13 11 9 9 14 18 16 13 14 14 11 11 11 13 9 9 9 9 9 11 nan 11 11 11 11 10 11 17 16 16 14 13 13 13 12 12 12 11 11 11 11 11
12 8 7 6 5 5 2 3 2 1 3 5 8 7 10 11 9 8 8 6 8 6 8 7 6 7 7 5 6 6 2 2 2 5 9 8 9 9 9 10 10 10 11 10 7 12 13 14 20 17 15 13 11 11 9 9 11 11 7 8 7 8 6 nan 10 12 11 9 9 10 13 17 16 15 13 13 12 13 13 13 13 12 12 13 13
12 11 9 6 7 4 2 2 2 1 3 5 8 8 10 10 9 8 7 6 7 4 5 7 4 7 4 2 5 4 3 1 3 6 10 8 8 10 10 10 10 12 12 11 14 17 20 19 13 12 11 11 13 12 12 12 11 8 9 9 nan 5 nan nan 8 9 10 9 9 8 10 13 16 15 14 13 12 12 13 14 13 14 14 14 15
9 11 10 9 8 5 3 3 1 1 4 5 7 10 10 9 9 8 7 5 6 5 4 5 2 4 2 3 2 4 5 2 4 8 10 6 8 8 8 8 9 11 13 14 16 12 10 10 10 9 11 11 9 12 12 12 9 7 7 8 6 nan 6 nan 6 9 11 11 8 8 9 11 12 15 16 14 13 12 13 13 13 14 14 14 15
9 9 9 10 6 1 2 3 3 1 4 7 7 10 10 9 8 7 6 5 5 4 4 3 4 3 1 2 2 4 3 4 5 6 6 6 7 7 8 8 10 11 12 12 9 9 9 10 11 11 12 9 12 9 9 8 7 8 7 4 3 4 nan nan nan 2 5 8 8 7 8 9 9 10 12 15 15 14 14 14 14 14 14 14 14
8 9 8 9 7 2 3 3 4 1 4 7 7 9 9 8 7 7 5 4 4 3 3 3 4 3 1 2 2 3 3 5 5 6 6 7 8 9 9 9 10 11 10 10 11 10 12 9 8 10 9 11 9 10 8 7 7 5 6 6 5 4 nan nan 5 1 3 3 6 8 9 8 8 9 10 10 13 15 15 15 16 15 15 14 13
7 9 7 7 5 3 5 3 4 3 4 8 7 9 8 8 7 6 5 2 4 2 3 2 2 3 3 1 2 3 4 5 6 6 7 7 8 8 8 9 10 10 11 10 12 12 8 10 10 8 8 7 7 9 10 8 6 6 5 3 4 nan 4 4 4 4 3 2 1 3 6 6 7 8 9 9 9 12 16 17 17 17 17 17 16
7 8 6 6 5 3 5 2 2 3 4 6 7 8 8 8 7 5 3 3 3 2 3 3 2 3 4 1 2 3 5 5 7 7 9 9 8 7 8 9 9 9 12 12 12 9 10 8 8 6 8 7 7 7 6 9 9 7 8 9 nan nan 6 5 5 4 4 3 5 2 2 5 6 9 7 6 8 8 13 16 18 19 20 19 18
9 7 5 6 4 5 5 5 5 3 6 8 8 8 7 7 7 6 6 3 2 2 3 3 3 4 3 2 2 3 4 6 7 7 10 10 9 8 8 8 7 11 13 12 12 10 10 10 8 7 7 7 7 6 8 8 nan 9 nan nan nan 0 nan 6 6 5 4 4 6 3 1 1 4 6 6 7 9 8 9 14 17 17 17 17 17
9 7 4 6 4 7 7 9 8 5 5 8 8 7 7 7 7 5 5 4 5 5 4 5 5 4 3 3 2 2 4 6 7 8 10 10 10 9 8 9 12 14 13 11 11 11 10 10 8 7 8 8 7 8 7 11 10 4 nan nan 5 4 2 5 5 5 4 5 8 9 9 7 7 7 5 5 7 10 10 10 10 10 12 17 17
8 8 7 7 7 8 7 10 10 8 8 9 8 7 6 6 5 6 5 6 5 6 6 5 5 6 4 3 1 2 4 5 7 8 10 10 10 10 10 11 12 11 10 13 13 11 8 7 7 7 10 12 11 12 14 12 nan nan 7 nan nan nan 3 4 7 7 7 5 5 4 8 9 9 9 12 9 8 9 11 12 12 12 11 14 17
9 8 9 6 5 7 7 8 8 9 8 7 7 7 6 7 6 5 5 4 6 5 6 6 5 4 3 2 2 1 3 5 6 8 9 11 9 9 10 10 10 9 12 14 13 11 10 9 6 9 13 13 13 15 nan nan 12 10 10 6 7 nan 9 nan nan 10 8 7 8 8 4 nan nan nan 7 7 8 7 10 11 11 11 11 12 14
8 7 8 6 6 8 8 9 10 8 7 7 8 8 8 7 6 5 4 4 4 5 6 7 6 4 4 3 1 1 3 4 6 8 10 10 9 8 9 9 9 10 14 15 13 13 12 10 8 9 11 13 14 16 13 10 14 13 12 12 nan 13 10 nan nan nan 11 9 8 7 nan nan nan nan nan 8 8 10 9 8 9 12 11 11 11
7 6 8 7 8 10 11 10 10 10 8 8 9 8 8 7 5 5 4 4 3 4 5 6 7 5 3 4 2 1 2 4 6 8 9 10 11 10 10 10 11 12 13 14 14 14 12 11 9 10 12 12 12 10 11 12 13 11 10 10 nan nan 10 11 13 nan nan 11 nan nan nan nan nan nan 10 9 7 6 7 7 9 10 12 11 10
9 8 6 7 9 12 12 11 10 11 11 11 10 8 8 8 6 6 5 6 4 4 5 6 7 7 4 4 4 1 3 4 6 8 8 9 10 11 10 10 10 11 12 13 13 13 9 8 9 10 11 11 12 11 11 11 12 9 11 12 12 12 10 12 14 nan nan nan nan nan nan nan nan 8 8 8 nan 8 8 7 6 6 11 12 12
6 7 6 6 9 9 13 12 12 13 13 12 11 10 8 7 7 7 6 7 7 6 7 7 7 7 6 3 2 1 2 4 6 7 7 9 9 10 9 8 10 10 11 13 13 11 9 9 10 9 11 11 9 9 9 nan nan 9 8 9 11 9 11 nan nan 10 nan nan nan nan 11 nan nan 5 nan nan nan nan 9 8 9 9 10 14 14
6 8 8 7 9 11 14 14 14 15 14 12 10 9 8 7 6 7 7 7 9 8 6 6 5 4 5 3 0 1 3 4 4 6 7 7 9 10 8 9 8 9 10 12 10 9 9 11 11 9 9 9 9 11 11 6 nan 6 7 9 11 10 10 12 9 nan 9 10 9 nan nan nan nan 8 9 9 9 9 nan 10 11 10 10 11 13
4 8 10 9 9 11 13 15 15 15 15 13 10 10 8 8 7 8 10 9 9 9 8 6 6 5 4 5 4 1 0 3 5 5 6 7 7 8 10 9 9 9 10 11 11 11 12 13 8 8 8 8 8 9 9 nan 5 6 nan 9 11 10 9 8 7 8 9 9 7 nan nan nan nan nan nan nan 12 nan 10 11 12 11 10 12 12
5 8 10 10 10 11 12 14 15 14 14 14 10 10 10 9 9 10 10 10 7 7 6 5 7 7 5 5 6 3 1 2 4 4 6 7 7 9 10 10 10 10 10 11 12 12 10 9 9 9 8 8 10 10 9 10 10 9 nan 9 8 7 2 5 10 10 10 9 9 9 nan nan nan nan nan nan nan nan 13 11 10 10 11 11 12
4 7 9 12 12 13 13 13 14 13 13 13 12 11 11 11 11 11 10 10 8 7 7 7 8 8 7 5 6 4 2 1 3 4 5 7 7 9 10 11 11 10 10 10 11 11 10 10 11 9 9 8 9 10 9 9 nan 11 10 10 9 8 10 9 7 6 9 12 12 12 11 nan nan nan 8 nan nan nan 10 12 12 14 14 14 12
2 6 9 12 14 16 14 14 13 13 13 12 13 12 11 12 11 10 9 9 8 7 7 7 8 8 7 5 4 4 2 1 2 4 3 6 7 9 10 12 13 13 12 11 10 10 11 10 10 10 9 9 8 9 9 8 9 9 13 12 9 9 11 12 12 12 11 9 10 nan nan 11 nan 8 7 nan nan nan nan 11 11 14 14 13 nan
1 5 8 11 13 15 16 15 14 14 13 12 13 13 12 11 11 10 8 7 6 6 7 7 7 6 5 5 3 3 2 1 1 2 3 6 7 9 11 12 12 13 13 11 11 11 11 10 10 10 9 8 7 7 8 7 8 6 10 11 13 12 12 13 13 13 13 11 13 13 nan nan nan 11 nan nan nan nan 11 nan nan nan 14 11 11
Wind_Direction
93 86 86 70 70 10 338 332 312 296 278 282 275 264 259 255 253 250 248 246 246 244 242 240 236 231 230 230 228 226 230 238 241 241 241 244 243 247 250 255 268 276 277 270 264 258 255 253 251 249 249 247 245 241 245 250 250 254 257 261 265 269 273 273 275 274 271 268 270 270 263 256 254 249 246 241 237 233 230 232 228 214 213 224 236
53 81 84 45 52 28 354 338 325 311 303 299 282 275 266 263 261 260 258 258 256 251 249 244 238 235 235 232 231 232 233 235 238 240 241 242 243 243 243 249 261 266 262 254 249 248 248 249 247 247 248 246 243 239 238 245 249 253 254 258 265 271 272 271 272 272 274 280 285 280 265 256 253 251 245 241 232 232 232 229 237 213 202 230 238
42 44 36 347 11 27 13 344 333 332 313 297 287 282 271 269 270 272 270 265 261 259 254 245 241 238 237 235 234 235 234 234 234 233 235 236 236 236 235 235 235 243 247 241 236 237 237 239 243 245 247 246 243 238 239 240 246 250 255 259 264 272 272 273 271 274 271 270 287 284 274 264 259 257 252 248 244 239 232 230 223 223 208 240 255
1 4 357 333 355 21 355 346 338 327 311 304 297 285 278 280 285 282 275 271 269 263 254 246 242 238 237 235 234 234 232 231 231 231 231 233 232 229 232 234 234 233 235 236 234 232 236 234 236 241 243 244 243 248 247 244 243 247 253 258 265 273 277 278 278 269 257 262 255 253 241 286 268 260 258 254 255 254 244 234 231 230 234 239 248
346 346 353 356 354 16 342 348 342 329 321 312 299 290 287 292 290 283 279 274 267 260 253 245 241 238 237 236 235 230 230 228 229 231 232 231 228 227 225 224 218 217 221 227 227 227 230 235 237 242 243 245 249 252 252 245 240 241 251 259 266 269 276 276 274 269 263 254 264 262 93 296 273 262 265 260 252 244 235 230 230 230 236 242 244
348 355 10 2 351 357 349 348 342 333 324 308 298 294 294 293 289 285 278 271 265 259 253 249 243 238 238 235 231 226 223 221 219 221 227 226 228 231 231 233 233 234 233 237 233 235 240 244 244 246 255 256 256 254 252 249 244 245 254 261 265 267 272 270 270 265 253 277 277 82 209 96 286 258 262 257 246 236 228 228 230 231 231 237 247
340 10 5 0 358 351 358 342 333 326 317 303 299 295 296 294 290 283 276 272 268 262 256 252 246 238 233 228 223 221 217 217 219 216 221 227 233 230 226 231 233 234 237 250 260 261 259 260 264 260 263 272 270 264 258 256 255 255 261 269 270 271 280 284 270 245 269 320 89 192 122 180 188 190 244 238 239 231 224 222 230 234 230 229 252
345 8 4 360 355 339 346 344 329 317 310 303 296 298 300 297 290 285 282 278 272 262 256 251 242 234 227 223 217 213 212 214 215 215 220 220 216 219 233 239 254 275 285 271 270 271 271 271 277 282 289 292 290 283 273 268 266 265 268 280 285 280 282 276 267 239 242 69 162 138 146 113 201 166 227 221 220 216 219 218 221 232 234 244 265
339 341 344 339 344 337 349 340 325 314 308 301 301 305 304 298 294 291 286 279 270 263 256 248 237 231 226 220 215 209 206 206 204 206 211 214 212 218 218 237 270 310 311 306 302 294 293 288 289 297 305 311 309 302 287 279 274 271 269 280 287 290 289 279 265 249 226 155 169 131 108 171 205 169 209 217 207 196 192 214 207 229 241 240 244
337 335 324 334 344 340 353 339 322 316 308 306 310 311 305 301 298 293 285 277 271 266 253 241 234 229 224 221 216 210 205 202 198 193 195 209 196 209 0 23 357 342 340 324 311 298 297 305 300 311 321 323 323 315 302 289 284 282 282 282 281 293 303 292 293 262 205 132 187 160 169 213 178 158 211 213 208 212 217 217 196 215 226 245 251
335 328 324 328 332 345 340 336 320 316 310 313 314 309 308 305 300 292 285 283 276 265 251 237 230 224 222 222 218 215 211 207 199 190 191 181 161 138 50 33 25 348 346 330 305 293 287 294 310 325 334 337 339 339 328 306 295 287 292 294 296 288 315 303 257 248 115 182 227 191 211 233 184 164 222 232 222 216 220 228 240 247 251 254 260
329 323 325 325 330 342 339 329 323 316 316 318 314 313 311 309 303 296 293 289 281 263 244 230 222 219 218 218 219 219 215 211 195 183 174 163 147 122 108 53 41 25 0 348 317 308 311 307 326 338 345 349 349 350 353 346 328 316 306 313 308 340 7 310 307 352 56 267 202 215 254 234 210 223 243 248 247 237 229 227 246 260 260 267 273
324 323 318 319 331 343 334 327 323 318 319 317 316 317 315 315 307 305 301 294 276 251 232 222 216 211 211 215 217 212 216 209 195 182 163 147 131 122 99 76 59 50 34 20 10 6 11 6 1 3 2 5 1 6 12 14 14 356 1 359 4 332 350 10 1 14 37 313 325 202 233 227 236 255 255 257 254 252 258 273 268 268 270 275 276
324 324 322 324 325 336 326 327 323 320 320 320 320 320 321 319 317 315 312 298 268 246 233 219 208 198 200 211 213 206 200 196 194 180 160 166 156 123 105 97 85 77 70 61 59 60 62 56 45 38 33 25 21 20 22 21 18 14 12 32 32 143 208 339 326 352 338 335 257 259 272 254 250 263 268 266 271 269 270 264 265 269 277 283 284
323 324 327 321 324 331 326 324 323 322 323 324 323 325 325 325 326 326 324 299 255 242 232 203 195 185 189 203 208 205 191 182 178 168 159 141 112 104 102 99 95 85 77 72 68 71 69 65 59 52 50 44 40 38 37 35 26 25 21 17 14 336 266 225 170 228 291 341 348 300 274 267 282 277 278 276 275 272 269 269 268 268 276 281 285
324 325 321 321 322 325 331 325 324 324 326 326 326 326 328 332 335 338 346 317 261 209 186 194 178 170 190 195 194 191 171 163 154 150 131 113 107 102 101 97 92 86 80 73 70 67 66 66 64 60 56 53 52 51 50 49 47 42 41 31 19 330 322 327 27 198 208 229 12 336 325 346 321 297 289 284 279 274 269 269 271 274 277 284 288
325 318 321 322 321 333 330 335 329 326 327 330 328 327 331 338 344 349 358 352 35 98 133 132 141 156 175 177 167 151 139 136 136 139 129 114 112 109 103 99 92 88 81 73 70 67 67 66 64 60 56 54 53 52 53 54 55 57 57 59 39 15 357 342 15 11 328 301 328 317 326 355 349 326 306 291 282 277 276 272 273 275 277 281 284
315 321 322 322 331 334 333 331 328 335 334 331 328 326 334 347 352 356 356 10 51 83 103 111 118 137 146 137 129 126 125 123 130 132 132 123 116 113 108 100 92 87 84 76 70 68 65 63 61 60 58 53 49 46 47 52 57 59 62 68 65 45 37 19 26 17 359 323 272 277 293 317 335 335 325 312 297 289 282 278 276 275 277 279 285
308 317 321 330 333 331 329 332 337 335 338 350 6 343 340 0 0 358 359 14 53 75 88 96 104 113 122 119 115 118 121 120 118 121 122 125 108 104 101 96 89 81 77 73 64 63 64 60 58 55 53 53 52 47 44 45 56 62 62 65 67 58 51 53 43 33 36 15 290 263 283 314 319 321 326 322 318 303 291 285 279 276 278 282 284
307 316 328 335 335 330 331 346 342 341 2 347 345 16 6 7 9 5 3 27 48 66 77 86 93 107 111 110 110 112 107 111 103 107 108 108 110 100 87 83 79 73 68 64 61 59 59 61 57 55 52 55 56 56 56 51 44 59 57 58 69 80 72 58 53 42 53 41 20 327 322 333 318 320 322 322 321 319 311 297 289 283 283 285 288
308 318 330 342 335 325 338 345 348 353 353 333 351 43 38 16 32 17 20 38 55 64 78 86 99 106 107 101 99 104 106 106 98 102 87 98 84 77 73 71 69 66 62 59 59 58 58 61 61 54 50 51 56 63 64 65 56 45 50 45 47 74 91 72 48 55 56 52 29 22 358 349 337 328 327 326 320 322 321 308 299 296 293 294 295
294 311 325 348 331 332 342 343 350 9 338 339 68 87 70 51 71 79 83 74 72 78 95 104 104 113 100 102 105 110 115 113 105 97 93 82 77 67 68 62 59 58 58 54 56 56 57 58 61 55 46 39 50 55 62 62 67 55 42 40 43 24 50 71 65 49 44 49 32 27 13 2 352 340 337 335 324 322 323 310 307 305 302 302 301
313 316 327 340 324 337 350 344 351 20 333 358 60 78 61 95 85 90 97 80 85 95 105 108 112 112 107 102 104 110 104 106 99 89 84 78 66 62 59 60 57 53 53 53 51 54 55 57 57 57 51 46 44 53 57 57 55 57 48 46 46 24 40 46 63 53 45 37 37 20 17 12 4 355 348 343 333 326 319 314 316 312 309 305 304
305 319 324 323 333 349 349 345 356 9 341 65 58 77 90 97 103 102 104 102 105 110 112 115 113 109 103 100 102 101 96 95 78 72 69 79 66 57 52 51 56 53 48 53 52 55 59 61 61 64 60 55 56 55 53 56 56 42 42 45 50 36 17 36 48 46 50 28 29 18 18 19 17 8 359 352 345 334 323 321 320 319 316 314 311
288 306 314 316 323 338 348 323 8 12 1 49 59 78 99 103 105 105 108 109 114 118 121 118 120 111 102 100 102 91 89 90 84 83 85 72 70 66 59 60 59 58 49 60 57 55 54 57 54 55 57 54 49 56 59 60 57 47 39 38 38 37 17 20 32 35 33 35 25 18 20 22 22 19 14 7 1 349 338 333 326 322 319 317 316
286 299 327 306 317 338 343 329 7 29 27 55 69 98 98 110 109 108 110 114 118 121 127 123 115 102 100 97 82 81 92 94 83 84 86 80 76 74 70 69 68 77 52 66 63 63 54 60 57 48 59 55 42 52 55 49 45 45 50 52 45 35 24 11 22 22 23 25 24 16 20 25 26 22 17 17 16 7 357 351 341 332 326 322 322
287 301 292 301 304 333 334 336 3 46 37 71 102 124 112 116 118 111 115 119 125 126 122 121 109 104 96 100 108 85 74 86 79 80 63 64 76 69 64 76 74 64 69 60 70 66 72 68 63 65 59 49 43 40 44 52 67 41 50 47 53 61 55 2 15 19 19 21 20 11 18 25 29 26 19 18 18 15 11 8 0 346 342 335 331
252 285 304 319 321 330 314 339 337 38 84 83 116 128 122 111 116 117 118 116 124 126 120 110 95 93 94 99 95 92 71 71 71 62 67 68 68 66 58 67 64 54 41 45 53 46 53 53 50 64 63 57 37 33 39 44 58 52 40 41 47 48 56 8 4 12 16 22 18 14 17 22 29 28 21 17 19 18 15 12 6 0 1 354 345
301 312 293 324 317 305 325 339 337 38 85 93 108 134 123 120 118 118 123 127 128 124 114 86 94 93 81 95 89 97 86 83 87 70 54 62 66 57 54 50 45 48 46 46 45 33 22 40 41 45 41 26 34 26 29 38 48 46 49 40 49 41 53 7 3 6 15 20 22 17 14 17 26 28 24 22 21 20 21 14 7 8 6 2 357
304 306 312 317 321 314 341 339 343 36 83 88 132 140 128 120 125 131 134 143 128 126 131 113 75 79 86 86 89 93 112 146 132 99 65 52 48 43 42 51 53 39 37 36 36 28 19 30 42 42 33 20 30 20 26 30 45 34 43 43 52 45 43 nan 358 9 13 19 20 19 13 18 21 24 24 23 22 22 21 21 14 8 7 7 1
309 316 289 303 295 295 25 301 329 88 108 105 131 139 122 123 134 142 138 134 124 171 134 101 92 86 91 83 99 112 58 351 31 66 70 48 40 38 39 47 35 41 37 31 22 32 39 21 33 21 24 27 21 27 14 34 39 23 23 44 54 58 74 nan 346 7 5 20 20 19 23 16 21 22 21 23 27 23 18 21 22 17 13 15 10
319 317 291 311 303 340 328 339 332 111 121 110 136 135 128 127 140 141 133 139 123 155 115 105 160 110 99 71 97 95 87 33 10 70 65 50 40 38 35 40 31 38 32 19 22 34 29 29 32 18 18 20 16 12 13 31 35 23 17 35 nan 43 nan nan 346 342 353 10 22 18 22 27 22 21 19 17 25 26 20 19 23 21 22 22 18
306 314 297 317 324 334 333 324 307 177 118 107 128 132 130 130 139 141 144 140 137 133 117 122 128 117 170 84 99 87 112 29 42 40 51 53 39 45 39 39 39 37 35 31 40 28 38 39 29 24 23 13 29 14 19 23 22 31 36 14 1 nan 58 nan 1 349 343 352 4 17 21 24 27 23 19 18 17 20 21 20 21 24 24 27 24
303 295 314 321 314 225 242 256 253 353 122 120 140 132 132 135 144 145 150 139 138 121 125 138 125 130 132 110 70 90 80 86 45 55 53 42 36 35 37 36 44 50 40 40 32 42 44 33 25 15 28 9 18 7 11 25 20 23 31 34 15 17 nan nan nan 2 340 330 352 357 18 18 20 31 30 21 17 17 15 16 19 22 25 28 24
295 305 315 316 307 240 223 231 228 182 128 133 138 133 134 135 145 147 146 150 148 131 114 133 145 134 144 122 98 84 75 75 57 49 50 28 24 23 30 29 41 39 47 41 34 34 35 31 39 5 29 9 13 9 357 5 14 5 47 42 23 43 nan nan 317 333 287 339 340 346 2 13 10 22 28 28 25 21 17 15 15 21 26 28 26
301 290 290 296 298 245 224 231 246 204 144 145 147 141 135 141 150 147 161 178 154 138 119 95 101 132 117 134 83 63 71 59 55 39 43 36 31 13 24 31 32 46 37 45 41 28 31 25 21 24 13 22 25 6 355 356 0 18 11 17 59 nan 63 301 290 280 271 284 292 325 339 353 355 10 15 27 27 27 19 15 15 18 19 20 22
283 284 291 282 266 241 219 242 260 209 157 138 155 151 151 149 154 145 149 205 155 154 145 130 152 123 131 110 64 63 62 55 52 37 39 38 32 21 25 32 35 53 30 29 44 23 28 29 32 24 42 18 32 358 346 344 342 7 7 0 nan nan 271 297 277 264 297 297 273 146 17 337 349 357 11 6 15 19 19 18 18 17 17 15 17
268 286 292 280 267 220 214 207 202 201 173 166 160 162 158 161 159 164 176 202 127 150 153 168 173 153 143 150 7 70 61 53 51 46 48 35 25 29 29 25 37 48 45 14 30 30 31 28 25 44 43 33 41 20 17 342 nan 354 nan nan nan 22 nan 320 311 317 296 294 279 290 241 313 353 345 3 348 356 357 10 14 15 18 17 12 12
251 281 270 266 231 218 205 195 208 196 187 178 174 167 169 170 166 166 167 197 172 169 182 185 162 155 124 177 327 62 67 54 49 48 42 46 21 20 24 21 29 41 36 22 21 33 35 39 22 37 71 66 44 47 31 39 9 7 nan nan 350 2 356 344 322 322 329 327 319 341 343 346 1 339 333 357 344 342 348 358 1 7 11 9 10
230 240 243 239 209 215 206 195 206 207 198 188 182 170 168 167 166 166 171 176 177 166 175 177 165 162 152 209 325 92 69 62 53 47 46 45 30 15 17 26 35 32 30 27 24 29 34 45 43 20 62 65 52 51 45 38 nan nan 41 nan nan nan 51 351 351 352 351 343 329 315 342 354 336 337 345 343 338 342 342 343 354 354 352 1 4
227 236 258 250 201 203 213 205 208 221 204 199 188 178 175 182 171 156 156 159 165 166 155 164 161 145 168 162 303 90 77 64 59 50 43 46 35 14 20 26 29 23 30 31 23 34 42 47 46 60 44 61 53 51 nan nan 28 42 58 26 38 nan 15 nan nan 359 355 348 348 18 356 nan nan nan 291 306 326 333 329 342 342 335 338 348 357
226 232 246 252 208 206 215 200 204 213 220 212 207 187 191 181 182 166 152 154 161 158 152 157 150 156 189 189 240 91 78 67 63 51 44 39 29 23 28 32 25 21 26 26 24 29 43 51 41 61 71 63 53 49 42 38 55 39 39 41 nan 47 24 nan nan nan 360 4 3 30 nan nan nan nan nan 323 333 338 332 324 323 322 337 341 348
237 235 223 237 218 203 214 204 200 210 213 226 220 198 196 195 184 174 152 166 162 149 147 149 151 157 194 184 210 164 87 69 58 52 50 40 35 19 28 33 27 22 20 24 25 29 44 54 41 45 53 58 64 59 51 51 60 40 47 44 nan nan 59 49 53 nan nan 17 nan nan nan nan nan nan 341 341 318 302 307 323 326 329 335 340 341
225 227 237 242 222 202 214 214 206 217 216 223 221 212 201 196 189 180 162 167 186 182 170 169 159 163 161 184 199 140 85 70 53 50 52 48 41 31 24 28 27 19 14 19 24 35 46 61 55 48 55 49 47 44 47 29 51 21 39 46 39 33 29 49 45 nan nan nan nan nan nan nan nan 355 358 348 nan 321 323 324 322 337 334 339 344
228 234 243 243 218 220 218 224 214 221 227 226 226 219 209 197 192 177 183 167 199 204 192 173 173 173 155 168 151 122 67 71 56 49 49 48 38 38 31 28 26 18 15 16 23 27 45 60 60 46 44 52 42 35 43 nan nan 44 41 42 43 29 36 nan nan 57 nan nan nan nan 35 nan nan 13 nan nan nan nan 339 328 341 348 344 342 352
220 233 247 249 231 222 222 229 220 220 232 237 236 223 210 209 198 188 195 194 195 207 189 174 170 161 110 120 138 44 48 63 55 48 49 46 44 38 32 31 29 26 18 20 18 23 29 54 50 46 44 46 36 22 7 31 nan 42 27 25 40 28 43 20 23 nan 69 38 33 nan nan nan nan 30 21 12 358 351 nan 351 358 1 356 352 358
236 244 247 250 244 233 226 234 231 226 233 238 247 225 221 207 206 200 199 210 201 193 191 171 164 173 156 156 224 259 77 63 56 43 51 40 36 39 36 27 30 24 23 18 17 29 34 33 21 41 41 24 16 27 4 nan 1 36 nan 47 25 43 21 22 12 12 31 61 44 nan nan nan nan nan nan nan 7 nan 4 358 0 350 352 353 356
264 263 263 260 258 249 240 240 233 233 233 240 249 236 225 217 215 210 209 211 206 196 194 187 178 185 200 162 217 233 257 72 76 58 40 35 17 38 40 23 26 21 24 24 20 24 21 30 22 19 25 11 19 30 37 2 6 23 nan 34 38 11 74 24 352 12 18 17 38 56 nan nan nan nan nan nan nan nan 3 358 340 347 349 347 355
286 279 273 261 256 255 252 248 246 243 242 251 252 247 229 225 220 219 217 214 210 197 195 199 194 191 198 195 192 243 245 63 80 72 38 34 13 21 32 29 24 15 10 20 22 23 13 21 20 15 15 14 25 35 39 11 nan 19 18 25 42 16 6 29 360 15 12 3 12 21 20 nan nan nan 6 nan nan nan 352 349 353 347 346 351 355
320 278 281 273 267 260 264 267 262 253 250 257 259 258 245 234 228 228 230 225 214 206 199 215 207 204 187 212 191 219 284 35 59 76 41 27 19 10 19 29 21 19 7 13 13 13 12 16 18 15 14 18 26 37 38 26 40 23 10 7 15 31 10 25 9 16 33 16 13 nan nan 349 nan 349 333 nan nan nan nan 334 352 336 338 337 nan
230 301 292 282 279 271 274 278 275 263 263 263 268 270 259 246 237 240 243 237 230 219 224 232 229 215 201 203 225 195 246 313 22 67 46 15 20 12 17 17 22 14 12 9 1 9 1 5 14 16 18 19 21 18 38 29 31 21 12 4 10 25 25 26 25 22 23 21 27 27 nan nan nan 340 nan nan nan nan 310 nan nan nan 328 350 341